| time (UTC) | temp F | wind direction | speed MPH | gust MPH | rain 1hr in | rain 24hr in | rain mn in | humidity % | barometer mb |
| 20260503201034 | 65 | 254 | 6.0 | 8.0 | 0.00 | 0.00 | 0.00 | 41 | 1008.1 |
| 20260503200530 | 66 | 24 | 7.0 | 9.0 | 0.00 | 0.00 | 0.00 | 41 | 1008.0 |
| 20260503200026 | 64 | 239 | 12.0 | 17.0 | 0.00 | 0.00 | 0.00 | 42 | 1007.9 |
| 20260503195524 | 63 | 291 | 7.0 | 9.0 | 0.00 | 0.00 | 0.00 | 47 | 1008.1 |
| 20260503195020 | 63 | 230 | 13.0 | 21.0 | 0.00 | 0.00 | 0.00 | 48 | 1008.3 |
| 20260503194518 | 63 | 216 | 10.0 | 13.0 | 0.00 | 0.00 | 0.00 | 49 | 1008.3 |
| 20260503194017 | 62 | 219 | 8.0 | 10.0 | 0.00 | 0.00 | 0.00 | 50 | 1008.4 |
| 20260503193514 | 61 | 235 | 11.0 | 15.0 | 0.00 | 0.00 | 0.00 | 51 | 1008.4 |
| 20260503193010 | 61 | 242 | 7.0 | 10.0 | 0.00 | 0.00 | 0.00 | 50 | 1008.7 |
| 20260503192506 | 61 | 235 | 6.0 | 8.0 | 0.00 | 0.00 | 0.00 | 50 | 1008.6 |
| 20260503192001 | 60 | 205 | 9.0 | 11.0 | 0.00 | 0.00 | 0.00 | 50 | 1008.6 |
| 20260503191459 | 60 | 206 | 7.0 | 11.0 | 0.00 | 0.00 | 0.00 | 51 | 1008.8 |
| 20260503190955 | 59 | 204 | 9.0 | 11.0 | 0.00 | 0.00 | 0.00 | 52 | 1009.0 |
| 20260503190453 | 59 | 257 | 9.0 | 11.0 | 0.00 | 0.00 | 0.00 | 53 | 1009.0 |
| 20260503185950 | 58 | 237 | 5.0 | 6.0 | 0.00 | 0.00 | 0.00 | 53 | 1009.3 |
| 20260503185446 | 57 | 231 | 8.0 | 10.0 | 0.00 | 0.00 | 0.00 | 55 | 1009.3 |
| 20260503184946 | 56 | 245 | 6.0 | 7.0 | 0.00 | 0.00 | 0.00 | 57 | 1009.4 |
| 20260503184442 | 56 | 167 | 11.0 | 16.0 | 0.00 | 0.00 | 0.00 | 58 | 1009.3 |
| 20260503183938 | 55 | 218 | 8.0 | 11.0 | 0.00 | 0.00 | 0.00 | 59 | 1009.6 |
| 20260503183435 | 55 | 178 | 5.0 | 8.0 | 0.00 | 0.00 | 0.00 | 60 | 1009.8 |
| 20260503182932 | 55 | 250 | 10.0 | 13.0 | 0.00 | 0.00 | 0.00 | 60 | 1009.8 |
| 20260503182431 | 55 | 214 | 9.0 | 11.0 | 0.00 | 0.00 | 0.00 | 61 | 1009.9 |
| 20260503181928 | 55 | 201 | 8.0 | 14.0 | 0.00 | 0.00 | 0.00 | 60 | 1010.1 |
| 20260503181425 | 54 | 181 | 7.0 | 13.0 | 0.00 | 0.00 | 0.00 | 61 | 1010.1 |
| 20260503180921 | 54 | 233 | 7.0 | 9.0 | 0.00 | 0.00 | 0.00 | 61 | 1010.6 |
| 20260503180420 | 54 | 217 | 10.0 | 13.0 | 0.00 | 0.00 | 0.00 | 61 | 1011.1 |
| 20260503175916 | 55 | 206 | 9.0 | 13.0 | 0.00 | 0.00 | 0.00 | 62 | 1011.5 |
| 20260503175414 | 55 | 238 | 5.0 | 8.0 | 0.00 | 0.00 | 0.00 | 62 | 1011.5 |
| 20260503174909 | 55 | 211 | 6.0 | 8.0 | 0.00 | 0.00 | 0.00 | 62 | 1011.7 |
| 20260503174408 | 55 | 262 | 6.0 | 9.0 | 0.00 | 0.00 | 0.00 | 63 | 1011.8 |
| 20260503173902 | 54 | 201 | 6.0 | 8.0 | 0.00 | 0.00 | 0.00 | 64 | 1011.9 |
| 20260503173359 | 54 | 247 | 5.0 | 10.0 | 0.00 | 0.00 | 0.00 | 65 | 1012.0 |
| 20260503172855 | 53 | 236 | 7.0 | 9.0 | 0.00 | 0.00 | 0.00 | 66 | 1012.2 |
| 20260503172353 | 53 | 225 | 6.0 | 11.0 | 0.00 | 0.00 | 0.00 | 67 | 1012.2 |
| 20260503171849 | 52 | 194 | 11.0 | 14.0 | 0.00 | 0.00 | 0.00 | 68 | 1012.4 |
| 20260503171346 | 52 | 228 | 5.0 | 9.0 | 0.00 | 0.00 | 0.00 | 70 | 1012.6 |
| 20260503170843 | 52 | 206 | 5.0 | 7.0 | 0.00 | 0.00 | 0.00 | 71 | 1012.5 |
| 20260503170340 | 51 | 192 | 8.0 | 13.0 | 0.00 | 0.00 | 0.00 | 72 | 1012.6 |
| 20260503150732 | 55 | 245 | 5.0 | 8.0 | 0.00 | 0.00 | 0.00 | 55 | 1013.1 |
| 20260503150228 | 54 | 244 | 3.0 | 3.0 | 0.00 | 0.00 | 0.00 | 55 | 1013.2 |
| 20260503140153 | 53 | 261 | 7.0 | 9.0 | 0.00 | 0.00 | 0.00 | 55 | 1013.9 |
| 20260503131122 | 51 | 252 | 8.0 | 10.0 | 0.00 | 0.00 | 0.00 | 54 | 1014.1 |
| 20260503130620 | 51 | 257 | 10.0 | 11.0 | 0.00 | 0.00 | 0.00 | 54 | 1013.9 |
| 20260503130117 | 51 | 221 | 7.0 | 8.0 | 0.00 | 0.00 | 0.00 | 54 | 1014.0 |
| 20260503110510 | 48 | 226 | 10.0 | 13.0 | 0.00 | 0.00 | 0.00 | 57 | 1013.9 |
| 20260503090401 | 47 | 234 | 5.0 | 9.0 | 0.00 | 0.00 | 0.00 | 56 | 1014.2 |
| 20260503081328 | 47 | 242 | 4.0 | 6.0 | 0.00 | 0.00 | 0.00 | 54 | 1014.5 |
| 20260503080825 | 47 | 223 | 2.0 | 2.0 | 0.00 | 0.00 | 0.00 | 54 | 1014.4 |
| 20260503080322 | 48 | 236 | 4.0 | 6.0 | 0.00 | 0.00 | 0.00 | 54 | 1014.2 |
| 20260503072759 | 48 | 242 | 4.0 | 5.0 | 0.00 | 0.00 | 0.00 | 52 | 1014.5 |
| 20260503072256 | 48 | 217 | 3.0 | 5.0 | 0.00 | 0.00 | 0.00 | 52 | 1014.6 |
| 20260503071752 | 48 | 225 | 4.0 | 5.0 | 0.00 | 0.00 | 0.00 | 52 | 1014.5 |
| 20260503071249 | 48 | 239 | 3.0 | 3.0 | 0.00 | 0.00 | 0.00 | 52 | 1014.4 |
| 20260503070745 | 48 | 238 | 1.0 | 2.0 | 0.00 | 0.00 | 0.00 | 51 | 1014.6 |
| 20260503070244 | 48 | 233 | 3.0 | 3.0 | 0.00 | 0.00 | 0.00 | 51 | 1014.4 |
| 20260503060208 | 48 | 229 | 2.0 | 2.0 | 0.00 | 0.00 | 0.00 | 53 | 1015.0 |
| 20260503054655 | 48 | 222 | 4.0 | 5.0 | 0.00 | 0.00 | 0.00 | 53 | 1015.4 |
| 20260503054152 | 48 | 237 | 3.0 | 5.0 | 0.00 | 0.00 | 0.00 | 53 | 1015.3 |
| 20260503053650 | 48 | 253 | 3.0 | 5.0 | 0.00 | 0.00 | 0.00 | 53 | 1015.1 |
| 20260503053149 | 48 | 230 | 3.0 | 3.0 | 0.00 | 0.00 | 0.00 | 53 | 1015.3 |
| 20260503052645 | 48 | 230 | 3.0 | 3.0 | 0.00 | 0.00 | 0.00 | 53 | 1015.3 |
| 20260503052141 | 48 | 232 | 1.0 | 2.0 | 0.00 | 0.00 | 0.00 | 53 | 1015.4 |
| 20260503051636 | 48 | 241 | 1.0 | 1.0 | 0.00 | 0.00 | 0.00 | 53 | 1015.4 |
| 20260503051135 | 49 | 230 | 1.0 | 2.0 | 0.00 | 0.00 | 0.00 | 53 | 1015.4 |
| 20260503050631 | 49 | 233 | 2.0 | 2.0 | 0.00 | 0.00 | 0.00 | 52 | 1015.5 |
| 20260503050128 | 49 | 205 | 3.0 | 5.0 | 0.00 | 0.00 | 0.00 | 52 | 1015.6 |
| 20260503045625 | 49 | 218 | 2.0 | 2.0 | 0.00 | 0.00 | 0.00 | 52 | 1015.6 |
| 20260503045122 | 49 | 212 | 2.0 | 3.0 | 0.00 | 0.00 | 0.00 | 51 | 1015.6 |
| 20260503044619 | 49 | 230 | 4.0 | 5.0 | 0.00 | 0.00 | 0.00 | 52 | 1015.5 |
| 20260503044117 | 49 | 224 | 3.0 | 3.0 | 0.00 | 0.00 | 0.00 | 51 | 1015.8 |
| 20260503043613 | 49 | 232 | 2.0 | 2.0 | 0.00 | 0.00 | 0.00 | 51 | 1015.5 |
| 20260503043110 | 49 | 227 | 2.0 | 3.0 | 0.00 | 0.00 | 0.00 | 51 | 1015.5 |
| 20260503042606 | 49 | 214 | 2.0 | 3.0 | 0.00 | 0.00 | 0.00 | 51 | 1015.3 |
| 20260503042102 | 49 | 230 | 3.0 | 3.0 | 0.00 | 0.00 | 0.00 | 51 | 1015.5 |
| 20260503041559 | 50 | 207 | 2.0 | 2.0 | 0.00 | 0.00 | 0.00 | 51 | 1015.8 |
| 20260503041057 | 50 | 236 | 1.0 | 2.0 | 0.00 | 0.00 | 0.00 | 51 | 1015.6 |
| 20260503040554 | 50 | 228 | 1.0 | 2.0 | 0.00 | 0.00 | 0.00 | 51 | 1015.5 |
| 20260503040051 | 50 | 237 | 1.0 | 1.0 | 0.00 | 0.00 | 0.00 | 50 | 1015.6 |
| 20260503035548 | 50 | 214 | 1.0 | 2.0 | 0.00 | 0.00 | 0.00 | 50 | 1015.8 |
| 20260503035046 | 50 | 227 | 3.0 | 3.0 | 0.00 | 0.00 | 0.00 | 50 | 1015.6 |
| 20260503034542 | 50 | 235 | 2.0 | 3.0 | 0.00 | 0.00 | 0.00 | 50 | 1015.7 |
| 20260503034040 | 50 | 226 | 2.0 | 3.0 | 0.00 | 0.00 | 0.00 | 50 | 1015.6 |
| 20260503033537 | 50 | 222 | 2.0 | 3.0 | 0.00 | 0.00 | 0.00 | 50 | 1015.8 |
| 20260503033035 | 50 | 234 | 3.0 | 3.0 | 0.00 | 0.00 | 0.00 | 49 | 1015.6 |
| 20260503032533 | 50 | 208 | 3.0 | 3.0 | 0.00 | 0.00 | 0.00 | 50 | 1015.7 |
| 20260503032031 | 50 | 236 | 1.0 | 2.0 | 0.00 | 0.00 | 0.00 | 49 | 1015.9 |
| 20260503031528 | 50 | 237 | 1.0 | 1.0 | 0.00 | 0.00 | 0.00 | 49 | 1015.8 |
| 20260503031025 | 50 | 246 | 2.0 | 2.0 | 0.00 | 0.00 | 0.00 | 49 | 1016.0 |
| 20260503030521 | 51 | 218 | 2.0 | 2.0 | 0.00 | 0.00 | 0.00 | 49 | 1016.0 |
| 20260503030019 | 51 | 222 | 2.0 | 2.0 | 0.00 | 0.00 | 0.00 | 49 | 1015.9 |
| 20260503025515 | 51 | 206 | 2.0 | 3.0 | 0.00 | 0.00 | 0.00 | 49 | 1016.0 |
| 20260503025013 | 51 | 204 | 3.0 | 3.0 | 0.00 | 0.00 | 0.00 | 49 | 1015.8 |
| 20260503024509 | 51 | 216 | 1.0 | 1.0 | 0.00 | 0.00 | 0.00 | 48 | 1016.2 |
| 20260503024006 | 51 | 225 | 1.0 | 2.0 | 0.00 | 0.00 | 0.00 | 48 | 1016.2 |
| 20260503023503 | 51 | 232 | 1.0 | 1.0 | 0.00 | 0.00 | 0.00 | 48 | 1015.9 |
| 20260503023000 | 51 | 222 | 2.0 | 2.0 | 0.00 | 0.00 | 0.00 | 48 | 1016.1 |
| 20260503022455 | 51 | 233 | 1.0 | 2.0 | 0.00 | 0.00 | 0.00 | 47 | 1016.1 |
| 20260503021951 | 51 | 233 | 3.0 | 5.0 | 0.00 | 0.00 | 0.00 | 47 | 1016.1 |
| 20260503021448 | 51 | 232 | 1.0 | 1.0 | 0.00 | 0.00 | 0.00 | 47 | 1015.8 |
| 20260503020945 | 51 | 218 | 2.0 | 2.0 | 0.00 | 0.00 | 0.00 | 47 | 1016.1 |
| 20260503020443 | 51 | 239 | 1.0 | 1.0 | 0.00 | 0.00 | 0.00 | 48 | 1015.8 |
| 20260503015939 | 51 | 239 | 1.0 | 1.0 | 0.00 | 0.00 | 0.00 | 47 | 1015.7 |
| 20260503015436 | 51 | 237 | 2.0 | 2.0 | 0.00 | 0.00 | 0.00 | 47 | 1015.8 |
| 20260503014932 | 51 | 235 | 1.0 | 1.0 | 0.00 | 0.00 | 0.00 | 49 | 1016.0 |
| 20260503014429 | 51 | 234 | 1.0 | 1.0 | 0.00 | 0.00 | 0.00 | 52 | 1015.8 |
| 20260503013927 | 51 | 231 | 1.0 | 1.0 | 0.00 | 0.00 | 0.00 | 55 | 1015.9 |
| 20260503013424 | 51 | 228 | 1.0 | 1.0 | 0.00 | 0.00 | 0.00 | 59 | 1015.8 |
| 20260503012921 | 51 | 227 | 1.0 | 1.0 | 0.00 | 0.00 | 0.00 | 59 | 1015.5 |
| 20260503012419 | 51 | 226 | 1.0 | 1.0 | 0.00 | 0.00 | 0.00 | 59 | 1015.8 |
| 20260503011915 | 51 | 226 | 0.0 | 1.0 | 0.00 | 0.00 | 0.00 | 59 | 1015.8 |
| 20260503011412 | 51 | 218 | 1.0 | 1.0 | 0.00 | 0.00 | 0.00 | 57 | 1015.6 |
| 20260503010909 | 51 | 205 | 2.0 | 2.0 | 0.00 | 0.00 | 0.00 | 58 | 1015.7 |
| 20260503010405 | 52 | 220 | 0.0 | 0.0 | 0.00 | 0.00 | 0.00 | 57 | 1015.9 |
| 20260503005902 | 51 | 210 | 2.0 | 2.0 | 0.00 | 0.00 | 0.00 | 56 | 1015.7 |
| 20260503005400 | 51 | 234 | 0.0 | 0.0 | 0.00 | 0.00 | 0.00 | 57 | 1015.8 |
| 20260503004856 | 52 | 235 | 0.0 | 0.0 | 0.00 | 0.00 | 0.00 | 55 | 1015.7 |
| 20260503004354 | 52 | 177 | 3.0 | 3.0 | 0.00 | 0.00 | 0.00 | 53 | 1015.6 |
| 20260503003851 | 52 | 207 | 1.0 | 1.0 | 0.00 | 0.00 | 0.00 | 53 | 1015.6 |
| 20260503003347 | 52 | 207 | 1.0 | 3.0 | 0.00 | 0.00 | 0.00 | 54 | 1015.7 |
| 20260503002844 | 52 | 213 | 0.0 | 0.0 | 0.00 | 0.00 | 0.00 | 53 | 1015.9 |
| 20260503002342 | 53 | 189 | 3.0 | 3.0 | 0.00 | 0.00 | 0.00 | 52 | 1015.8 |
| 20260503001838 | 53 | 175 | 4.0 | 5.0 | 0.00 | 0.00 | 0.00 | 51 | 1015.8 |
| 20260503001334 | 53 | 173 | 3.0 | 3.0 | 0.00 | 0.00 | 0.00 | 51 | 1015.8 |
| 20260503000832 | 53 | 161 | 1.0 | 1.0 | 0.00 | 0.00 | 0.00 | 51 | 1015.7 |
| 20260503000329 | 52 | 132 | 3.0 | 3.0 | 0.00 | 0.00 | 0.00 | 49 | 1015.9 |
| 20260502235826 | 52 | 182 | 6.0 | 7.0 | 0.00 | 0.00 | 0.00 | 53 | 1015.8 |
| 20260502235324 | 52 | 169 | 3.0 | 5.0 | 0.00 | 0.00 | 0.00 | 54 | 1015.8 |
| 20260502234820 | 52 | 141 | 2.0 | 3.0 | 0.00 | 0.00 | 0.00 | 53 | 1015.9 |
| 20260502234317 | 52 | 175 | 3.0 | 5.0 | 0.00 | 0.00 | 0.00 | 55 | 1016.0 |
| 20260502233814 | 52 | 186 | 1.0 | 2.0 | 0.00 | 0.00 | 0.00 | 53 | 1016.1 |
| 20260502233310 | 52 | 177 | 2.0 | 2.0 | 0.00 | 0.00 | 0.00 | 52 | 1015.9 |
| 20260502232807 | 52 | 188 | 2.0 | 2.0 | 0.00 | 0.00 | 0.00 | 51 | 1016.0 |
| 20260502232304 | 52 | 108 | 1.0 | 2.0 | 0.00 | 0.00 | 0.00 | 51 | 1016.2 |
| 20260502231800 | 52 | 186 | 1.0 | 2.0 | 0.00 | 0.00 | 0.00 | 51 | 1016.4 |
| 20260502231258 | 52 | 182 | 1.0 | 1.0 | 0.00 | 0.00 | 0.00 | 52 | 1016.3 |
| 20260502230756 | 52 | 178 | 0.0 | 1.0 | 0.00 | 0.00 | 0.00 | 50 | 1016.3 |
| 20260502230254 | 52 | 181 | 4.0 | 5.0 | 0.00 | 0.00 | 0.00 | 49 | 1016.4 |
| 20260502225750 | 53 | 179 | 4.0 | 6.0 | 0.00 | 0.00 | 0.00 | 47 | 1016.2 |
| 20260502225247 | 53 | 171 | 4.0 | 5.0 | 0.00 | 0.00 | 0.00 | 49 | 1016.4 |
| 20260502224743 | 53 | 165 | 4.0 | 5.0 | 0.00 | 0.00 | 0.00 | 49 | 1016.4 |
| 20260502224240 | 55 | 147 | 3.0 | 6.0 | 0.00 | 0.00 | 0.00 | 47 | 1016.4 |
| 20260502223738 | 53 | 161 | 3.0 | 5.0 | 0.00 | 0.00 | 0.00 | 49 | 1016.6 |
| 20260502223235 | 54 | 154 | 5.0 | 8.0 | 0.00 | 0.00 | 0.00 | 50 | 1016.3 |
| 20260502222733 | 53 | 224 | 1.0 | 2.0 | 0.00 | 0.00 | 0.00 | 46 | 1016.2 |
| 20260502222229 | 53 | 158 | 6.0 | 7.0 | 0.00 | 0.00 | 0.00 | 47 | 1016.5 |
| 20260502221725 | 52 | 166 | 3.0 | 5.0 | 0.00 | 0.00 | 0.00 | 49 | 1016.4 |
| 20260502221222 | 51 | 147 | 4.0 | 5.0 | 0.00 | 0.00 | 0.00 | 51 | 1016.4 |
| 20260502220719 | 51 | 189 | 2.0 | 2.0 | 0.00 | 0.00 | 0.00 | 50 | 1016.4 |
| 20260502220215 | 51 | 141 | 4.0 | 6.0 | 0.00 | 0.00 | 0.00 | 50 | 1016.6 |
| 20260502215712 | 52 | 251 | 1.0 | 2.0 | 0.00 | 0.00 | 0.00 | 50 | 1016.7 |
| 20260502215209 | 52 | 186 | 1.0 | 1.0 | 0.00 | 0.00 | 0.00 | 50 | 1016.4 |
| 20260502214706 | 51 | 207 | 2.0 | 3.0 | 0.00 | 0.00 | 0.00 | 50 | 1016.7 |
| 20260502214203 | 51 | 178 | 5.0 | 7.0 | 0.00 | 0.00 | 0.00 | 50 | 1017.0 |
| 20260502213700 | 52 | 151 | 8.0 | 10.0 | 0.00 | 0.00 | 0.00 | 49 | 1016.7 |
| 20260502213157 | 52 | 139 | 5.0 | 7.0 | 0.00 | 0.00 | 0.00 | 48 | 1016.6 |
| 20260502212656 | 51 | 144 | 5.0 | 6.0 | 0.00 | 0.00 | 0.00 | 49 | 1016.9 |
| 20260502212154 | 51 | 144 | 5.0 | 6.0 | 0.00 | 0.00 | 0.00 | 49 | 1016.9 |
| 20260502211649 | 52 | 133 | 5.0 | 7.0 | 0.00 | 0.00 | 0.00 | 47 | 1017.0 |
| 20260502211147 | 53 | 178 | 5.0 | 8.0 | 0.00 | 0.00 | 0.00 | 46 | 1016.9 |
| 20260502210644 | 53 | 163 | 4.0 | 5.0 | 0.00 | 0.00 | 0.00 | 46 | 1017.1 |
| 20260502210141 | 53 | 228 | 2.0 | 2.0 | 0.00 | 0.00 | 0.00 | 46 | 1017.1 |
| 20260502205638 | 53 | 191 | 3.0 | 5.0 | 0.00 | 0.00 | 0.00 | 46 | 1017.1 |
| 20260502205134 | 51 | 160 | 7.0 | 7.0 | 0.00 | 0.00 | 0.00 | 47 | 1017.2 |
| 20260502204631 | 53 | 207 | 6.0 | 7.0 | 0.00 | 0.00 | 0.00 | 47 | 1017.2 |
| 20260502204129 | 51 | 241 | 3.0 | 5.0 | 0.00 | 0.00 | 0.00 | 47 | 1017.2 |
| 20260502203626 | 50 | 186 | 3.0 | 3.0 | 0.00 | 0.00 | 0.00 | 48 | 1017.4 |
| 20260502203124 | 50 | 142 | 5.0 | 7.0 | 0.00 | 0.00 | 0.00 | 48 | 1017.3 |
| 20260502202619 | 51 | 198 | 2.0 | 2.0 | 0.00 | 0.00 | 0.00 | 48 | 1017.5 |
| 20260502202117 | 51 | 161 | 4.0 | 5.0 | 0.00 | 0.00 | 0.00 | 48 | 1017.3 |
| 20260502201613 | 52 | 180 | 7.0 | 8.0 | 0.00 | 0.00 | 0.00 | 47 | 1017.5 |